Regional Weather Roundup
Issued by NWS

Home | Current Version | Previous Version | Graphics & Text | Print | Product List | Glossary On
Versions: 1 2 3 4 5 6 7 8 9 10 11 12 13 14 15 16 17 18 19 20 21 22 23 24 25 26 27 28 29 30 31 32 33 34 35 36 37 38 39 40 41 42 43 44 45 46 47 48 49 50
000
ASUS43 KLOT 240300
RWRIL

ILLINOIS REGIONAL WEATHER ROUNDUP
NATIONAL WEATHER SERVICE CHICAGO/ROMEOVILLE IL
1000 PM CDT SAT MAY 23 2015

NOTE: "FAIR" INDICATES FEW OR NO CLOUDS BELOW 12,000 FEET WITH NO
SIGNIFICANT WEATHER AND/OR OBSTRUCTIONS TO VISIBILITY.

* THESE STATIONS ARE NOT UNDER NWS QUALITY CONTROL. THEY ALSO MAY NOT
  REPORT WEATHER SUCH AS PRECIPITATION OR FOG.

ILZ001-002-007-009-015-016-024-240400-
NORTHWEST ILLINOIS

CITY           SKY/WX    TMP DP  RH WIND       PRES   REMARKS
MOLINE         MOCLDY    61  50  67 SE5       30.15R
STERLING*      PTCLDY    70  48  46 S3        30.18R
$$

ILZ003-004-008-010-011-017-018-240400-
NORTH CENTRAL ILLINOIS

CITY           SKY/WX    TMP DP  RH WIND       PRES   REMARKS
ROCKFORD       PTCLDY    66  47  50 SE3       30.20R
$$

ILZ005-006-012>014-019>023-240400-
NORTHEAST ILLINOIS

CITY           SKY/WX    TMP DP  RH WIND       PRES   REMARKS
CHICAGO-OHARE  PTCLDY    63  43  48 SE8       30.19R
CHICAGO-MIDWAY PTCLDY    69  45  41 SE3       30.20R
AURORA         CLEAR     65  47  52 SE3       30.19R
WAUKEGAN       PTCLDY    56  41  57 SE3       30.20R
DUPAGE AIRPORT CLEAR     65  48  54 S3        30.19R
WHEELING       CLEAR     65  41  41 SE6       30.21R
NORTHERLY ISL    N/A     60  46  59 SE1         N/A
$$

LMZ740>746-240400-
SOUTHERN LAKE MICHIGAN

STATION/POSITION SKY/WX   TEMP    WIND        PRES    VSBY  WAVE
                          AIR SEA DIR/SP/G                  HT/PER
                          (F)     (DEG/KT/KT) (MB)    (MI)  (FT/S)
SOUTHERN BUOY              48 38  120/ 10/ 10 1023.4R         0
HARRISON CRIB              57     130/  5/  8   N/A
BURNHAM HARBOR             60        CALM       N/A
CALUMET HARBOR             62     100/  5/  8   N/A
BURNS HARBOR               72     190/  6/ 18 1023.0S
MICHIGAN CITY              72     110/  4/  6   N/A
MICHIGAN CITY 6N           60 53  100/  4/  6   N/A           1
ST. JOSEPH                 67 57  130/  4/  6   N/A           0
$$

ILZ025>027-034>036-040-047-049-050-058-095>099-240400-
WEST-CENTRAL ILLINOIS

CITY           SKY/WX    TMP DP  RH WIND       PRES   REMARKS
QUINCY         CLOUDY    69  50  50 SE8       30.14S
$$

ILZ028>032-037-038-041>044-048-051>054-059>061-240400-
CENTRAL ILLINOIS

CITY           SKY/WX    TMP DP  RH WIND       PRES   REMARKS
DECATUR        CLOUDY    68  50  52 SE7       30.20S
PEORIA         CLOUDY    72  49  44 S6        30.18R
SPRINGFIELD    CLOUDY    72  51  47 SE9       30.18R
TAYLORVILLE    NOT AVBL
$$

ILZ033-039-045-046-055>057-062-063-240400-
EAST-CENTRAL ILLINOIS

CITY           SKY/WX    TMP DP  RH WIND       PRES   REMARKS
CHAMPAIGN      CLOUDY    69  48  47 S6        30.22R
MATTOON        CLOUDY    65  51  60 SE3       30.20F
$$

ILZ079-100>102-240400-
SOUTHWEST ILLINOIS

CITY           SKY/WX    TMP DP  RH WIND       PRES   REMARKS
ALTON          CLEAR     68  54  60 SE7       30.17
BELLEVILLE     CLOUDY    67  57  69 E3        30.16S
CAHOKIA*       CLOUDY    68  53  58 SE3       30.16F
$$

ILZ064>066-069>071-074>076-080>082-084>086-088>090-092>094-240400-
SOUTH-CENTRAL ILLINOIS

CITY           SKY/WX    TMP DP  RH WIND       PRES   REMARKS
CARBONDALE     CLOUDY    67  53  61 SE5       30.19R
MT. VERNON     CLOUDY    66  50  55 E3        30.20S
$$

ILZ067-068-072-073-078-083-087-091-240400-
SOUTHEAST ILLINOIS

CITY           SKY/WX    TMP DP  RH WIND       PRES   REMARKS
LAWRENCEVILLE  MOCLDY    66  52  60 SE3       30.23R
$$

ABBREVIATIONS USED IN REMARKS
   TC - TEMPERATURE IN CELSIUS
  WCI - WIND CHILL INDEX
   HX - HEAT INDEX
  VSB - VISIBILITY
$$




USA.gov is the U.S. government's official web portal to all federal, state and local government web resources and services.